GW5236 Weather Reports


time (UTC)temp
C
wind
direction
speed
KPH
gust
KPH
rain 1hr
cm
rain 24hr
cm
rain mn
cm
humidity
%
barometer
mb
20260503055007 -1 267 0.0 0.0 0.00 0.00 0.00 92 1017.4
20260503054525 -1 267 0.0 0.0 0.00 0.00 0.00 92 1017.4
20260503053508 -1 267 0.0 0.0 0.00 0.00 0.00 92 1017.4
20260503053032 0 267 0.0 0.0 0.00 0.00 0.00 92 1017.4
20260503052511 0 267 0.0 0.0 0.00 0.00 0.00 91 1017.4
20260503051526 0 267 0.0 0.0 0.00 0.00 0.00 91 1017.5
20260503051010 0 267 0.0 0.0 0.00 0.00 0.00 91 1017.5
20260503050505 0 267 0.0 0.0 0.00 0.00 0.00 91 1017.6
20260503050010 0 267 0.0 0.0 0.00 0.00 0.00 91 1017.6
20260503045006 0 267 0.0 0.0 0.00 0.00 0.00 91 1017.5
20260503044000 0 267 0.0 0.0 0.00 0.00 0.00 90 1017.4
20260503043501 0 267 0.0 0.0 0.00 0.00 0.00 89 1017.4
20260503043008 0 267 0.0 0.0 0.00 0.00 0.00 89 1017.4
20260503042501 0 267 0.0 0.0 0.00 0.00 0.00 88 1017.5
20260503042001 0 267 0.0 0.0 0.00 0.00 0.00 88 1017.5
20260503041511 0 267 0.0 0.0 0.00 0.00 0.00 88 1017.5
20260503041003 0 267 0.0 0.0 0.00 0.00 0.00 88 1017.5
20260503040504 1 267 0.0 0.0 0.00 0.00 0.00 88 1017.5
20260503040012 1 267 0.0 0.0 0.00 0.00 0.00 88 1017.6
20260503035508 1 267 0.0 0.0 0.00 0.00 0.00 87 1017.6
20260503034530 1 267 0.0 0.0 0.00 0.00 0.00 87 1017.6
20260503034007 1 267 0.0 0.0 0.00 0.00 0.00 86 1017.6
20260503033506 2 267 0.0 0.0 0.00 0.00 0.00 87 1017.6
20260503032500 2 267 0.0 0.0 0.00 0.00 0.00 86 1017.7
20260503032000 2 267 0.0 0.0 0.00 0.00 0.00 86 1017.7
20260503031506 2 267 0.0 0.0 0.00 0.00 0.00 86 1017.8
20260503031004 2 267 0.0 0.0 0.00 0.00 0.00 86 1017.8
20260503030504 2 267 0.0 0.0 0.00 0.00 0.00 86 1017.8
20260503030010 2 267 0.0 0.0 0.00 0.00 0.00 85 1017.8
20260503025504 2 267 0.0 0.0 0.00 0.00 0.00 86 1017.8
20260503025004 2 267 0.0 0.0 0.00 0.00 0.00 85 1017.8
20260503024512 2 267 0.0 0.0 0.00 0.00 0.00 85 1017.8
20260503023014 2 267 0.0 0.0 0.00 0.00 0.00 85 1018.0
20260503022506 2 267 0.0 0.0 0.00 0.00 0.00 84 1017.9
20260503022007 1 267 0.0 0.0 0.00 0.00 0.00 84 1018.0
20260503021000 1 267 0.0 0.0 0.00 0.00 0.00 83 1018.0
20260503020505 1 267 0.0 0.0 0.00 0.00 0.00 82 1018.0
20260503020007 2 267 0.0 0.0 0.00 0.00 0.00 81 1018.0
20260503015501 2 267 0.0 0.0 0.00 0.00 0.00 80 1017.9
20260503015001 2 267 0.0 0.0 0.00 0.00 0.00 79 1017.9
20260503014515 2 267 0.0 0.0 0.00 0.00 0.00 78 1017.8
20260503014004 2 267 0.0 0.0 0.00 0.00 0.00 76 1017.8
20260503013504 2 267 0.0 0.0 0.00 0.00 0.00 74 1017.8
20260503013018 3 267 0.0 0.0 0.00 0.00 0.00 73 1017.8
20260503012010 3 267 0.0 0.0 0.00 0.00 0.00 70 1017.8
20260503011519 3 267 0.0 0.0 0.00 0.00 0.00 69 1017.7
20260503010508 4 267 0.0 0.0 0.00 0.00 0.00 68 1017.6
20260503010021 5 267 0.0 0.0 0.00 0.00 0.00 69 1017.5
20260503005506 5 267 0.0 0.0 0.00 0.00 0.00 64 1017.5
20260503005004 5 267 0.0 0.0 0.00 0.00 0.00 61 1017.4
20260503004510 5 267 0.0 0.0 0.00 0.00 0.00 60 1017.5
20260503004004 6 267 0.0 0.0 0.00 0.00 0.00 59 1017.4
20260503003504 6 267 0.0 3.2 0.00 0.00 0.00 59 1017.4
20260503003013 6 267 0.0 3.2 0.00 0.00 0.00 57 1017.4
20260503002504 6 267 0.0 3.2 0.00 0.00 0.00 57 1017.3
20260503002005 6 267 1.6 3.2 0.00 0.00 0.00 56 1017.3
20260503001516 6 294 0.0 3.2 0.00 0.00 0.00 56 1017.2
20260503001004 6 294 1.6 6.4 0.00 0.00 0.00 56 1017.1
20260503000024 6 273 1.6 3.2 0.00 0.00 0.00 56 1017.1
20260502235504 6 271 0.0 4.8 0.00 0.00 0.00 56 1017.1
20260502235008 6 274 0.0 4.8 0.00 0.00 0.00 56 1017.1
20260502234505 6 284 3.2 4.8 0.00 0.00 0.00 55 1017.1
20260502234004 6 352 1.6 4.8 0.00 0.00 0.00 56 1017.1
20260502233505 6 293 0.0 9.7 0.00 0.00 0.00 56 1017.0
20260502233008 6 263 3.2 11.3 0.00 0.00 0.00 55 1017.0
20260502231518 6 297 0.0 6.4 0.00 0.00 0.00 55 1017.1
20260502230020 7 262 4.8 9.7 0.00 0.00 0.00 53 1017.0
20260502224523 7 289 1.6 4.8 0.00 0.00 0.00 54 1017.0
20260502224008 7 306 1.6 9.7 0.00 0.00 0.00 53 1017.1
20260502223511 7 256 4.8 9.7 0.00 0.00 0.00 52 1017.1
20260502223007 7 5 1.6 8.0 0.00 0.00 0.00 53 1017.1
20260502222006 7 277 1.6 12.9 0.00 0.00 0.00 54 1017.1
20260502220015 7 277 3.2 9.7 0.00 0.00 0.00 50 1017.0
20260502214528 7 262 1.6 4.8 0.00 0.00 0.00 52 1017.1
20260502213022 7 350 4.8 16.1 0.00 0.00 0.00 50 1016.9
20260502212510 7 25 1.6 16.1 0.00 0.00 0.00 52 1016.9
20260502212013 7 316 3.2 12.9 0.00 0.00 0.00 52 1016.8
20260502211007 7 352 4.8 11.3 0.00 0.00 0.00 50 1016.8
20260502204518 7 274 4.8 12.9 0.00 0.00 0.00 50 1016.8
20260502204006 7 269 4.8 12.9 0.00 0.00 0.00 49 1016.8
20260502201524 7 326 1.6 9.7 0.00 0.00 0.00 53 1016.9
20260502201010 7 258 3.2 14.5 0.00 0.00 0.00 51 1016.8
20260502200009 7 236 1.6 9.7 0.00 0.00 0.00 53 1017.0
20260502194515 7 250 6.4 16.1 0.00 0.00 0.00 50 1017.1
20260502193022 7 309 3.2 14.5 0.00 0.00 0.00 51 1017.3
20260502190510 7 352 4.8 17.7 0.00 0.00 0.00 53 1017.2
20260502190030 7 324 6.4 17.7 0.00 0.00 0.00 49 1017.2
20260502185508 7 309 8.0 16.1 0.00 0.00 0.00 46 1017.2
20260502184516 8 252 6.4 16.1 0.00 0.00 0.00 48 1017.3
20260502183508 8 300 3.2 17.7 0.00 0.00 0.00 53 1017.3
20260502183020 8 246 8.0 16.1 0.00 0.00 0.00 50 1017.3
20260502182508 8 292 6.4 11.3 0.00 0.00 0.00 50 1017.3
20260502180503 8 319 1.6 11.3 0.00 0.00 0.00 52 1017.3
20260502164013 6 319 4.8 12.9 0.00 0.00 0.00 56 1017.8
20260502163018 6 248 8.0 17.7 0.00 0.00 0.00 57 1017.8
20260502152007 7 360 4.8 14.5 0.00 0.00 0.00 58 1017.6
20260502151518 7 225 4.8 17.7 0.00 0.00 0.00 60 1017.7
20260502151005 7 299 6.4 17.7 0.00 0.00 0.00 63 1017.7
20260502130507 4 281 6.4 12.9 0.00 0.03 0.00 74 1017.5
20260502123508 3 290 0.0 9.7 0.00 0.03 0.00 78 1017.3
20260502122505 2 296 1.6 9.7 0.00 0.05 0.00 77 1017.2
20260502121509 2 279 1.6 6.4 0.00 0.05 0.00 79 1017.1
20260502120505 1 283 3.2 8.0 0.00 0.05 0.00 80 1017.2
20260502115507 1 265 1.6 6.4 0.00 0.05 0.00 83 1017.1
20260502114520 0 240 1.6 6.4 0.00 0.05 0.00 85 1017.0
20260502114009 0 245 1.6 4.8 0.00 0.05 0.00 86 1017.1
20260502113509 0 259 1.6 4.8 0.00 0.05 0.00 88 1017.0
20260502113022 0 250 1.6 3.2 0.00 0.05 0.00 89 1017.0
20260502112508 0 267 0.0 3.2 0.00 0.05 0.00 89 1017.0
20260502112008 -1 232 0.0 3.2 0.00 0.05 0.00 89 1016.9
20260502111508 -1 232 0.0 3.2 0.00 0.05 0.00 88 1017.1
20260502110014 -1 232 0.0 0.0 0.00 0.05 0.00 86 1017.1
20260502104529 -1 232 0.0 3.2 0.00 0.05 0.00 86 1016.9
20260502103022 0 230 0.0 3.2 0.00 0.05 0.00 85 1016.8
20260502102508 0 230 0.0 3.2 0.00 0.05 0.00 85 1016.8
20260502102008 0 230 0.0 3.2 0.00 0.05 0.00 85 1016.7
20260502101524 0 230 0.0 3.2 0.00 0.05 0.00 86 1016.8
20260502101010 0 241 0.0 3.2 0.00 0.05 0.00 86 1016.7
20260502100510 0 241 0.0 3.2 0.00 0.05 0.00 87 1016.7
20260502091508 -1 251 0.0 0.0 0.00 0.05 0.00 91 1016.8
20260502091004 -1 251 0.0 3.2 0.00 0.05 0.00 91 1016.8
20260502090503 0 251 0.0 3.2 0.00 0.05 0.00 92 1016.8
20260502071001 0 236 0.0 0.0 0.00 0.05 0.00 88 1016.5
20260502070501 0 236 0.0 0.0 0.00 0.05 0.00 88 1016.5
20260502070013 0 236 0.0 0.0 0.00 0.05 0.00 87 1016.6
20260502065500 0 236 0.0 3.2 0.00 0.05 0.00 87 1016.6
20260502065002 0 236 0.0 3.2 0.00 0.05 0.00 88 1016.7
20260502064524 1 236 0.0 3.2 0.00 0.05 0.00 88 1016.7
20260502064004 1 236 0.0 3.2 0.00 0.05 0.00 89 1016.7
20260502063507 0 236 0.0 3.2 0.00 0.05 0.00 90 1016.8